| time (UTC) | temp C | wind direction | speed KPH | gust KPH | rain 1hr cm | rain 24hr cm | rain mn cm | humidity % | barometer mb |
| 20260906114007 | 25 | 355 | 4.8 | 14.5 | 0.00 | 0.00 | 0.00 | 87 | 1014.2 |
| 20260906112007 | 25 | 62 | 3.2 | 11.3 | 0.00 | 0.00 | 0.00 | 88 | 1014.0 |
| 20260906105007 | 26 | 32 | 6.4 | 19.3 | 0.00 | 0.00 | 0.00 | 89 | 1013.4 |
| 20260906104007 | 26 | 67 | 3.2 | 11.3 | 0.00 | 0.00 | 0.00 | 89 | 1013.2 |
| 20260906101007 | 25 | 88 | 0.0 | 9.7 | 0.00 | 0.00 | 0.00 | 88 | 1012.6 |
| 20260906095007 | 25 | 72 | 1.6 | 19.3 | 0.00 | 0.00 | 0.00 | 91 | 1012.4 |
| 20260906092007 | 25 | 211 | 0.0 | 0.0 | 0.00 | 0.00 | 0.00 | 90 | 1012.0 |
| 20260906090007 | 25 | 169 | 0.0 | 0.0 | 0.00 | 0.00 | 0.00 | 90 | 1011.8 |
| 20260906084007 | 25 | 169 | 0.0 | 0.0 | 0.00 | 0.00 | 0.00 | 90 | 1011.8 |
| 20260906083007 | 25 | 169 | 0.0 | 0.0 | 0.00 | 0.00 | 0.00 | 90 | 1011.7 |
| 20260906073007 | 26 | 169 | 0.0 | 0.0 | 0.00 | 0.00 | 0.00 | 90 | 1011.8 |
| 20260906072007 | 26 | 169 | 0.0 | 0.0 | 0.00 | 0.00 | 0.00 | 90 | 1011.8 |
| 20260906070007 | 26 | 169 | 0.0 | 0.0 | 0.00 | 0.00 | 0.00 | 89 | 1011.8 |
| 20260906065007 | 26 | 169 | 0.0 | 0.0 | 0.00 | 0.00 | 0.00 | 89 | 1011.7 |
| 20260906064007 | 26 | 169 | 0.0 | 0.0 | 0.00 | 0.00 | 0.00 | 89 | 1011.8 |
| 20260906060007 | 26 | 128 | 0.0 | 0.0 | 0.00 | 0.00 | 0.00 | 89 | 1011.8 |
| 20260906055007 | 26 | 128 | 0.0 | 0.0 | 0.00 | 0.00 | 0.00 | 89 | 1011.8 |
| 20260906054007 | 26 | 128 | 0.0 | 0.0 | 0.00 | 0.00 | 0.00 | 88 | 1011.8 |
| 20260906053007 | 26 | 128 | 0.0 | 0.0 | 0.00 | 0.00 | 0.00 | 88 | 1012.0 |
| 20260906052007 | 27 | 128 | 0.0 | 0.0 | 0.00 | 0.00 | 0.00 | 87 | 1012.1 |
| 20260906045007 | 27 | 128 | 0.0 | 0.0 | 0.00 | 0.00 | 2.49 | 86 | 1012.1 |
| 20260906044007 | 27 | 128 | 0.0 | 0.0 | 0.00 | 0.00 | 2.49 | 86 | 1012.1 |
| 20260906042007 | 27 | 128 | 0.0 | 0.0 | 0.00 | 0.00 | 2.49 | 85 | 1012.1 |
| 20260906041007 | 27 | 128 | 0.0 | 0.0 | 0.00 | 0.00 | 2.49 | 84 | 1012.1 |
| 20260906040007 | 27 | 128 | 0.0 | 0.0 | 0.00 | 0.00 | 2.49 | 84 | 1012.1 |
| 20260906034007 | 28 | 128 | 0.0 | 0.0 | 0.03 | 0.00 | 2.49 | 83 | 1012.0 |
| 20260906031007 | 28 | 128 | 0.0 | 0.0 | 0.05 | 0.00 | 2.49 | 81 | 1011.9 |
| 20260906023007 | 29 | 128 | 0.0 | 0.0 | 0.10 | 0.00 | 2.46 | 78 | 1011.6 |
| 20260906022007 | 29 | 128 | 0.0 | 0.0 | 0.15 | 0.00 | 2.46 | 77 | 1011.6 |
| 20260906014007 | 30 | 128 | 0.0 | 0.0 | 0.08 | 0.00 | 2.36 | 74 | 1011.1 |
| 20260906012007 | 30 | 128 | 0.0 | 0.0 | 0.03 | 0.00 | 2.31 | 73 | 1011.0 |
| 20260906010007 | 31 | 128 | 0.0 | 0.0 | 0.00 | 0.00 | 2.29 | 71 | 1010.8 |
| 20260906003007 | 31 | 128 | 0.0 | 0.0 | 0.10 | 0.00 | 2.29 | 67 | 1010.5 |
| 20260906000007 | 33 | 128 | 0.0 | 0.0 | 0.23 | 0.00 | 2.29 | 62 | 1010.7 |
| 20260905235007 | 33 | 128 | 0.0 | 0.0 | 0.20 | 0.00 | 2.26 | 60 | 1010.8 |
| 20260905234007 | 33 | 128 | 0.0 | 0.0 | 0.18 | 0.00 | 2.24 | 60 | 1010.8 |
| 20260905231007 | 35 | 128 | 0.0 | 0.0 | 1.04 | 0.00 | 2.06 | 55 | 1010.7 |
| 20260905223007 | 36 | 128 | 0.0 | 8.0 | 2.06 | 0.00 | 2.06 | 50 | 1010.8 |
| 20260905221007 | 36 | 117 | 0.0 | 4.8 | 1.02 | 0.00 | 1.02 | 46 | 1010.8 |
| 20260905214007 | 37 | 60 | 0.0 | 0.0 | 0.00 | 0.00 | 0.00 | 43 | 1010.8 |
| 20260905213007 | 37 | 142 | 0.0 | 0.0 | 0.00 | 0.00 | 0.00 | 44 | 1010.9 |
| 20260905212007 | 37 | 132 | 0.0 | 1.6 | 0.00 | 0.00 | 0.00 | 43 | 1010.9 |
| 20260905210007 | 37 | 54 | 3.2 | 8.0 | 0.00 | 0.00 | 0.00 | 42 | 1011.1 |
| 20260905205007 | 37 | 71 | 3.2 | 14.5 | 0.00 | 0.00 | 0.00 | 44 | 1011.2 |
| 20260905203007 | 38 | 71 | 0.0 | 11.3 | 0.00 | 0.00 | 0.00 | 42 | 1011.4 |
| 20260905194007 | 38 | 69 | 1.6 | 11.3 | 0.00 | 0.00 | 0.00 | 42 | 1012.3 |
| 20260905192007 | 38 | 72 | 1.6 | 4.8 | 0.00 | 0.00 | 0.00 | 42 | 1012.7 |
| 20260905185007 | 38 | 147 | 6.4 | 14.5 | 0.00 | 0.00 | 0.00 | 42 | 1013.0 |
| 20260905183007 | 37 | 309 | 0.0 | 1.6 | 0.00 | 0.00 | 0.00 | 47 | 1013.2 |
| 20260905182007 | 36 | 26 | 0.0 | 4.8 | 0.00 | 0.00 | 0.00 | 51 | 1013.3 |
| 20260905181007 | 36 | 88 | 4.8 | 11.3 | 0.00 | 0.00 | 0.00 | 51 | 1013.4 |
| 20260905180007 | 37 | 48 | 0.0 | 9.7 | 0.00 | 0.00 | 0.00 | 50 | 1013.4 |
| 20260905173007 | 36 | 23 | 3.2 | 8.0 | 0.00 | 0.00 | 0.00 | 51 | 1013.6 |
| 20260905172007 | 36 | 11 | 0.0 | 9.7 | 0.00 | 0.00 | 0.00 | 51 | 1013.7 |
| 20260905165007 | 36 | 86 | 0.0 | 0.0 | 0.00 | 0.00 | 0.00 | 52 | 1014.0 |
| 20260905160007 | 35 | 272 | 0.0 | 0.0 | 0.00 | 0.00 | 0.00 | 58 | 1014.7 |
| 20260905155006 | 35 | 80 | 0.0 | 8.0 | 0.00 | 0.00 | 0.00 | 56 | 1014.6 |
| 20260905154007 | 34 | 354 | 4.8 | 8.0 | 0.00 | 0.00 | 0.00 | 57 | 1014.7 |
| 20260905145007 | 31 | 113 | 0.0 | 0.0 | 0.00 | 0.00 | 0.00 | 70 | 1014.9 |
| 20260905143007 | 30 | 116 | 0.0 | 0.0 | 0.00 | 0.00 | 0.00 | 73 | 1014.9 |
| 20260905140007 | 28 | 119 | 0.0 | 0.0 | 0.00 | 0.00 | 0.00 | 79 | 1014.9 |
| 20260905134009 | 27 | 120 | 0.0 | 0.0 | 0.00 | 0.00 | 0.00 | 82 | 1014.6 |
| 20260905133007 | 27 | 109 | 0.0 | 0.0 | 0.00 | 0.00 | 0.00 | 86 | 1014.8 |
| 20260905132007 | 26 | 109 | 0.0 | 4.8 | 0.00 | 0.00 | 0.00 | 89 | 1014.9 |
| 20260905131007 | 25 | 84 | 3.2 | 9.7 | 0.00 | 0.00 | 0.00 | 92 | 1014.9 |
| 20260905125007 | 23 | 147 | 0.0 | 0.0 | 0.00 | 0.00 | 0.00 | 94 | 1015.0 |
| 20260905120007 | 23 | 147 | 0.0 | 0.0 | 0.00 | 0.00 | 0.00 | 94 | 1014.8 |